Weather in Oktyabrskiy

Russia / Kirov Oblast     58°51′24″N   50°26′06″E
temp.,
°C
wind,
m/s
gust,
m/s
humid.,
%
clouds,
%
prec.,
mm/h
press.,
hPa
HPBL,
m
22 january, sat
sat2200:00−12sse41192100 0.0 1020315
03:00−13sse41294100 0.0 1020277
06:00−13se41194100 0.0 1021286
09:00−13se41195100 0.0 1022306
12:00−10se41091100 0.0 1023349
15:00−10se4109278 0.0 1024360
18:00−11se31193100 0.1 1025354
21:00−10se41194100 0.5 1025379
23 january, sun
sun2300:00−10se3994100 0.1 1026292
03:00−9se41194100 0.3 1026348
06:00−6sse41295100 1.1 1026623
09:00−6sse41092100 1.8 1027620
12:00−6s4992100 0.1 1029530
15:00−6s3894100 0.2 1030390
18:00−8s2797100 0.1 1032176
21:00−11ssw2498100 0.1 103383
24 january, mon
mon2400:00−13ssw2199100 0.1 103536
03:00−15sw25100100 0.1 103674
06:00−15wsw2699100 0.0 1037131
09:00−16sw269990 0.1 1038107
12:00−11wsw369388 0.0 1038196
15:00−12sw259684 0.0 1038130
18:00−14sw2997100 0.0 1038168
21:00−15sw31098100 0.0 1037177
25 january, tue
tue2500:00−14sw3119691 0.0 1036230
03:00−15sw3119773 0.0 1035205
06:00−16sw3109884 0.0 1034180
09:00−16sw3910098 0.0 1032170
12:00−10sw3695100 0.0 1031252
15:00−9s379574 0.1 1029251
18:00−12s311915 0.0 1028227
21:00−14s3109514 0.0 1027198
26 january, wed
wed2600:00−15s399530 0.0 1026173
03:00−17s3896100 0.0 1026150
06:00−17s289676 0.0 1025151
09:00−16s299794 0.0 1025192
12:00−11ssw3592100 0.1 1025282
15:00−10s369580 0.3 1025266
18:00−12s3896100 0.1 1026213
21:00−13sse279789 0.1 1025162